Location: *
(7.7960°S, 179.1460°E)
Time: 09:57:39
(UTC+00:00)

Daily predictions for brighter satellites

Satellite Brightness Start Highest point End
(mag) Time Altitude Azimuth Time Altitude Azimuth Time Altitude Azimuth
CZ-3B R/B 4.5 15:06:52 33° ESE 15:06:52 33° ESE 15:15:40 10° ENE
Ariane H10+ 3.5 15:28:55 46° E 15:28:55 46° E 15:39:38 10° E
Meteor 2-11 Rocket 4.4 16:08:41 54° S 16:10:11 82° E 16:16:20 10° N
MOS 1-B 4.5 16:05:19 10° NNE 16:11:06 71° ESE 16:13:00 44° S
Cosmos 1500 Rocket 4.0 16:17:54 53° ESE 16:18:23 57° E 16:22:38 10° NNE
ATLAS CENTAUR R/B 4.0 16:17:03 10° SSE 16:19:31 16° ESE 16:22:09 10° ENE
USA 81 4.0 16:15:07 10° N 16:20:22 84° E 16:22:54 32° S
ARIANE 5 R/B 4.2 16:20:40 22° N 16:21:54 26° NNE 16:29:46 10° ENE
Cosmos 1743 Rocket 3.6 16:23:25 74° NNE 16:23:25 74° NNE 16:27:24 10° N
OAO 2 Rocket 3.9 16:24:02 46° S 16:24:51 51° SE 16:30:02 10° ENE
Cosmos 1825 3.9 16:23:31 18° SE 16:25:37 31° E 16:28:59 10° NNE
PAYLOAD B 4.5 16:22:10 10° NNE 16:27:40 67° ESE 16:32:04 16° S
Cosmos 1634 Rocket 3.9 16:30:48 34° SSW 16:33:32 66° W 16:39:40 10° N
Cosmos 1408 2.5 16:39:56 67° S 16:40:22 85° E 16:43:59 10° N
Cosmos 2084 Rocket 4.1 16:40:47 26° S 16:43:07 56° ESE 16:47:32 10° NE
SL-4 R/B 3.4 16:40:14 10° NNW 16:44:45 46° NE 16:49:24 10° SE
GPS 2-17 Rocket1 3.9 16:44:07 32° NW 16:45:00 35° NNW 16:49:01 10° NE
CZ-2C R/B 3.0 16:45:32 10° NNW 16:50:11 37° W 16:51:05 34° WSW
Transit 2A Rocket 4.5 16:47:59 10° NNW 16:52:36 63° WSW 16:56:55 10° SSE
GPS 2-15 Rocket1 3.8 16:55:01 28° SSW 16:56:50 41° SSE 17:01:14 10° E
SL-24 R/B 4.4 16:54:07 10° N 16:58:33 78° W 17:02:27 12° SSW
Cosmos 1805 Rocket 3.8 16:55:54 10° S 17:00:14 70° E 17:04:34 10° N
ARIANE 5 R/B 3.7 16:56:54 15° WNW 17:00:32 28° NNW 17:02:49 10° NE
Okean O Rocket 1.6 16:56:12 10° N 17:00:35 61° WNW 17:04:20 14° SSW
Ariane H10 4.4 16:58:01 10° NNW 17:01:28 22° NNE 17:10:32 10° ENE
GPS 2-04 Rocket1 3.3 17:01:08 30° WNW 17:02:01 35° NW 17:05:26 10° NNE
Cosmos 1869 3.7 16:59:06 10° NNW 17:02:51 40° W 17:06:16 12° SSW
Cosmos 1484 Rocket 2.5 16:59:31 10° N 17:03:15 79° W 17:06:52 11° SSW
Cosmos 1092 Rocket 4.0 16:58:03 10° N 17:04:22 89° E 17:10:45 10° S
ALOS 3.7 17:01:01 10° NE 17:05:20 38° ESE 17:09:39 10° S
Cosmos 1515 Rocket 4.5 17:02:46 10° N 17:07:05 52° E 17:11:27 10° SSE
Cosmos 1151 Rocket 3.1 17:03:18 10° N 17:07:32 76° E 17:11:50 10° S
Ariane 44LP R/B 4.4 17:06:37 14° WNW 17:11:05 46° N 17:14:34 10° ENE
Cosmos 1656 3.8 17:07:14 10° S 17:12:43 74° ESE 17:18:07 10° NNE
Cosmos 2279 Rocket 4.2 17:08:52 10° SSW 17:14:51 48° W 17:20:49 10° NNW
deb Centaur AC-2 4.3 17:10:28 11° WNW 17:15:01 79° SSW 17:20:50 10° ESE
CZ-3 R/B 2.9 16:54:50 10° NW 17:17:16 69° NNE 17:23:01 10° ESE
CENTAUR R/B 3.2 17:12:45 10° S 17:17:48 43° ESE 17:22:57 10° NE
Meteor 2-3 Rocket 3.8 17:12:43 10° SSW 17:18:17 58° W 17:23:46 10° N
Cosmos 1269 Rocket 4.0 17:13:38 10° SSW 17:18:56 85° WNW 17:24:13 10° N
DELTA 2 R/B (1) 3.5 17:15:01 10° NW 17:20:33 84° SW 17:26:08 10° SE
Cosmos 2228 Rocket 3.8 17:17:34 10° N 17:21:52 56° E 17:26:11 10° SSE
Cosmos 1242 Rocket 4.4 17:22:30 14° W 17:22:30 14° W 17:24:06 10° NW
IRS-1C Rocket 4.1 17:20:13 10° NNE 17:25:29 89° WNW 17:30:48 10° SSW
ISS -3.9 17:22:46 10° NW 17:26:04 79° SW 17:29:22 10° SSE
Centaur AC-119 3.3 17:26:10 16° WSW 17:27:50 25° S 17:32:50 10° SE
Okean-O 4.3 17:24:51 10° NE 17:28:53 36° ESE 17:32:57 10° S
Tiangong 2 1.8 17:26:26 11° WNW 17:29:13 32° SW 17:32:08 10° SSE
Cosmos 1328 Rocket 4.1 17:26:28 10° NNW 17:30:32 37° W 17:34:40 10° SSW
ATLAS 5 CENTAUR R/B 2.6 17:31:01 10° S 17:35:16 45° ESE 17:39:16 10° NE
Mugunghwa Rocket 4.4 17:29:25 10° WNW 17:36:23 61° SSW 17:44:14 10° SE
Ariane H10 3.7 17:33:42 10° W 17:37:39 61° N 17:54:46 10° ENE
COSMOS 2487 2.5 17:34:27 10° NNW 17:37:49 52° WSW 17:41:12 10° S
Radarsat Rocket 4.0 17:33:16 10° N 17:38:56 58° WNW 17:44:54 10° SSW
Cosmos 1697 Rocket 3.0 17:33:18 10° S 17:38:57 73° ESE 17:44:32 10° NNE
CZ-4B R/B 4.2 17:36:07 10° NNW 17:40:21 25° WNW 17:44:37 10° SW
NATO 3D Rocket 3.7 17:34:34 10° WSW 17:40:31 67° NNW 17:45:17 10° ENE
Aureole 2 Rocket 3.9 17:39:24 10° WSW 17:40:36 12° W 17:41:48 10° NW
Cosmos 1933 3.7 17:40:26 10° N 17:44:29 73° E 17:48:34 10° S
SMAP 3.7 17:41:14 10° NNE 17:45:48 60° ESE 17:50:24 10° S
FENGYUN 3A 3.7 17:41:20 10° N 17:46:42 69° WNW 17:52:08 10° SSW
BLOCK DM-SL R/B 4.5 17:42:57 10° WNW 17:48:19 40° N 17:53:40 10° ENE
GPS 2-14 Rocket1 2.8 17:46:55 10° WSW 17:50:40 60° NNW 17:54:23 10° ENE
